FW1558 Weather Reports


time (UTC)temp
C
wind
direction
speed
KPH
gust
KPH
rain 1hr
cm
rain 24hr
cm
rain mn
cm
humidity
%
barometer
mb
20260504081509 4 222 0.0 4.8 0.00 0.00 0.00 80 1007.1
20260504044545 1 225 1.6 6.4 0.00 0.00 0.00 76 1008.0
20260504043039 1 211 3.2 8.0 0.00 0.00 0.00 75 1008.1
20260504041535 1 226 3.2 9.7 0.00 0.00 0.00 76 1008.3
20260504040044 0 217 4.8 8.0 0.00 0.00 0.00 78 1008.1
20260504034532 0 238 3.2 8.0 0.00 0.00 0.00 78 1008.1
20260504033028 0 222 0.0 6.4 0.00 0.00 0.00 79 1008.0
20260504031528 0 217 0.0 4.8 0.00 0.00 0.00 78 1008.0
20260504030024 1 215 1.6 6.4 0.00 0.00 0.00 77 1008.2
20260504024520 1 221 1.6 6.4 0.00 0.00 0.00 75 1008.3
20260504023019 1 224 1.6 6.4 0.00 0.00 0.00 74 1008.3
20260504021517 1 237 0.0 4.8 0.00 0.00 0.00 74 1008.2
20260504020017 2 240 0.0 3.2 0.00 0.00 0.00 73 1008.1
20260504014512 2 240 1.6 4.8 0.00 0.00 0.00 72 1008.1
20260504013011 2 236 1.6 4.8 0.00 0.00 0.00 71 1008.1
20260504011507 3 234 1.6 4.8 0.00 0.00 0.00 69 1007.9
20260504010005 4 280 0.0 3.2 0.00 0.00 0.00 67 1007.9
20260504004505 5 284 0.0 1.6 0.00 0.00 0.00 64 1007.9
20260504003005 5 284 1.6 4.8 0.00 0.00 0.00 62 1007.6
20260504001505 6 307 0.0 1.6 0.00 0.00 0.00 56 1007.5
20260504000003 7 304 0.0 1.6 0.00 0.00 0.00 52 1007.3
20260503234503 8 304 0.0 4.8 0.00 0.00 0.00 50 1007.4
20260503233003 8 284 0.0 4.8 0.00 0.00 0.00 48 1007.3
20260503231504 9 289 0.0 3.2 0.00 0.00 0.00 43 1007.2
20260503230003 9 289 1.6 9.7 0.00 0.05 0.00 41 1007.1
20260503224501 10 26 3.2 16.1 0.00 0.05 0.00 40 1007.2
20260503223100 10 355 1.6 14.5 0.00 0.05 0.00 40 1007.1
20260503221603 10 82 4.8 9.7 0.00 0.05 0.00 40 1007.1
20260503220058 10 326 3.2 12.9 0.00 0.05 0.00 40 1007.0
20260503214602 10 240 1.6 8.0 0.00 0.05 0.00 42 1007.1
20260503213055 9 55 3.2 14.5 0.00 0.05 0.00 42 1007.2
20260503211556 9 67 1.6 16.1 0.00 0.05 0.00 43 1007.3
20260503210055 9 99 12.9 29.0 0.00 0.05 0.00 42 1007.3
20260503204558 9 240 8.0 20.9 0.00 0.05 0.00 41 1007.2
20260503203053 9 291 6.4 20.9 0.00 0.05 0.00 44 1007.2
20260503201554 8 336 11.3 22.5 0.00 0.05 0.00 44 1007.2
20260503200051 8 300 8.0 17.7 0.00 0.05 0.00 45 1007.3
20260503194550 8 338 1.6 16.1 0.00 0.05 0.00 46 1007.5
20260503193106 8 290 8.0 19.3 0.00 0.05 0.00 46 1007.7
20260503191552 8 282 6.4 20.9 0.00 0.05 0.00 45 1007.8
20260503184547 8 340 4.8 16.1 0.00 0.05 0.00 44 1007.7
20260503183058 8 329 8.0 16.1 0.00 0.05 0.00 42 1007.7
20260503181546 9 194 3.2 17.7 0.00 0.05 0.00 42 1007.8
20260503180054 10 355 12.9 24.1 0.00 0.05 0.00 40 1007.7
20260503174541 9 107 12.9 24.1 0.00 0.05 0.00 38 1007.5
20260503173103 8 202 9.7 24.1 0.00 0.05 0.00 40 1007.7
20260503171548 9 281 4.8 24.1 0.00 0.05 0.00 39 1007.7